www.pogodaiklimat.ru

Погода и климат >> Архив погоды >> Австрия >> Санкт-Себастьян


ПОГОДА в Санкт-Себастьяне

  • Прогноз погоды в Санкт-Себастьяне
  • Монитор погоды в Санкт-Себастьяне

АРХИВ ПОГОДЫ в Санкт-Себастьяне

Время (UTC), дата Ветер
(напр.,м/с)
 
Видим.   Явления Облачность Т
(С)
Тd
(С)
f
(%)
Тe
(С)
Тes
(С)
Комфортность P
(гПа)
Po
(гПа)
Тmin
(С)
Tmax
(С)
R
(мм)
R24
(мм)
S
(см)
16 12.06 Ю 6 н/о н/о +25.4 +13.1 46 +27 +27 жарко 1007.1 913.6
17 12.06 Ю 5 н/о н/о +24.6 +13.8 51 +27 +27 жарко 1007.6 913.8
18 12.06 Ю 5
{17}
н/о н/о +23.6 +14.3 56 +26 +26 жарко 1008.1 914.0 +22.1 +27.1 0.0
19 12.06 Ю 4 н/о н/о +22.7 +14.9 61 +26 +26 жарко 1008.7 914.3
20 12.06 Ю 5 н/о н/о +22.2 +15.0 64 +26 +26 душно 1009.6 914.9
21 12.06 ЮВ 6 н/о н/о +22.2 +15.5 66 +26 +26 душно 1010.0 915.3
22 12.06 Ю 3 н/о н/о +21.3 +15.6 70 +25 +25 комфорт 1010.2 915.2 0.0
23 12.06 Ю 4 н/о н/о +21.7 +15.5 68 +25 +25 комфорт 1009.9 915.1
00 13.06 Ю 4 н/о н/о +21.6 +15.4 68 +25 +25 комфорт 1009.7 914.9 0.0
01 13.06 Ю 4 н/о н/о +20.9 +15.2 70 +24 +24 комфорт 1009.7 914.6
02 13.06 С 5 н/о н/о +15.6 +13.4 87 +14 +14 1011.5 914.6
03 13.06 С 4 н/о н/о +14.2 +12.7 91 +13 +13 1012.7 915.2
04 13.06 СЗ 3 н/о н/о +14.1 +12.6 91 +13 +13 1013.3 915.7
05 13.06 СЗ 3 н/о н/о +14.6 +13.0 90 +14 +14 1013.7 916.2
06 13.06 СЗ 3 н/о н/о +15.6 +13.1 85 +15 +15 1013.5 916.4 +13.8 +23.8 0.0
07 13.06 С 4 н/о н/о +16.5 +13.2 81 +16 +16 1013.5 916.6
08 13.06 С 4 н/о н/о +18.1 +13.7 75 +18 +18 1012.7 916.4
09 13.06 С 5 н/о н/о +19.9 +14.3 70 +22 +22 комфорт 1011.9 916.3
10 13.06 С 5 н/о н/о +21.1 +14.2 65 +24 +24 комфорт 1011.4 916.2
11 13.06 С 5 н/о н/о +23.2 +15.1 60 +27 +27 душно 1010.0 915.6
12 13.06 С 5 н/о н/о +24.8 +15.8 57 +28 +28 жарко 1009.1 915.3
13 13.06 С 3 н/о н/о +26.2 +16.5 55 +30 +30 душно 1008.4 915.1
14 13.06 С 5 н/о н/о +25.9 +16.8 57 +30 +30 душно 1008.5 915.1
15 13.06 С 5 н/о н/о +25.2 +16.5 59 +29 +29 душно 1008.9 915.3
16 13.06 С 3 н/о н/о +25.5 +16.8 59 +29 +29 душно 1008.4 914.9
17 13.06 Ю 4 н/о н/о +26.0 +11.2 40 +27 +27 жарко 1008.5 914.9
18 13.06 ЮВ 5 н/о н/о +26.0 +10.5 38 +27 +27 жарко 1008.7 915.1 +15.5 +26.6
19 13.06 Ю 5 н/о н/о +24.3 +10.6 42 +25 +25 комфорт 1009.6 915.4
20 13.06 С 3 н/о н/о +20.7 +11.7 56 +23 +23 комфорт 1012.2 916.7
21 13.06 З 1 н/о н/о +19.3 +15.3 78 +22 +22 комфорт 1013.4 917.5
22 13.06 СЗ 1 н/о н/о +19.8 +15.5 76 +23 +23 комфорт 1014.3 918.5
23 13.06 штиль 0 н/о н/о +17.8 +14.5 81 +18 +18 1015.6 919.0
00 14.06 ЮВ 1 н/о н/о +16.7 +13.6 82 +18 +18 1016.7 919.6
01 14.06 ЮВ 1 н/о н/о +16.3 +13.1 81 +17 +17 1016.8 919.6
02 14.06 штиль 0 н/о н/о +15.0 +12.8 87 +15 +15 1017.5 919.8
03 14.06 ЮВ 1 н/о н/о +13.7 +12.1 90 +14 +14 1018.7 920.4
04 14.06 ЮВ 1 н/о н/о +13.9 +12.4 91 +14 +14 1019.4 921.1
05 14.06 ЮВ 2 н/о н/о +14.9 +13.0 88 +15 +15 1019.3 921.4
06 14.06 Ю 1 н/о н/о +17.9 +13.8 77 +19 +19 1018.7 921.8 +13.3 +26.0
07 14.06 ЮВ 2 н/о н/о +21.1 +13.8 63 +24 +24 комфорт 1017.8 922.0
08 14.06 З 1 н/о н/о +22.6 +14.2 59 +26 +26 жарко 1017.2 921.9 0.0
09 14.06 СЗ 2 н/о н/о +23.6 +13.2 52 +26 +26 жарко 1016.8 921.8 0.0
10 14.06 В 1 н/о н/о +26.4 +11.4 39 +28 +28 жарко 1015.5 921.4
11 14.06 ЮВ 2 н/о н/о +27.7 +11.0 35 +28 +28 жарко 1014.6 921.0 0.0
12 14.06 ЮВ 2 н/о н/о +29.1 +10.8 32 +29 +29 жарко 1014.0 920.8 0.0
13 14.06 ЮВ 2 н/о н/о +29.9 +8.6 26 +29 +29 жарко 1013.2 920.3
14 14.06 Ю 4 н/о н/о +30.3 +8.2 25 +29 +29 жарко 1012.7 919.9
15 14.06 Ю 3 н/о н/о +30.8 +9.4 27 +30 +30 жарко 1012.0 919.5
16 14.06 Ю 5 н/о н/о +29.8 +9.3 28 +29 +29 жарко 1011.9 919.1
17 14.06 Ю 5 н/о н/о +29.1 +10.0 30 +29 +29 жарко 1012.0 919.0
18 14.06 ЮВ 4 н/о н/о +27.4 +11.6 37 +28 +28 жарко 1012.5 919.0 +17.6 +30.8 0.0
19 14.06 ЮВ 4 н/о н/о +25.5 +12.8 45 +27 +27 жарко 1013.4 919.3
20 14.06 ЮВ 4 н/о н/о +24.8 +12.9 48 +27 +27 жарко 1014.1 919.7 0.0
21 14.06 ЮВ 3 н/о н/о +23.9 +13.1 51 +26 +26 жарко 1014.3 919.6 0.0
22 14.06 ЮВ 5 н/о н/о +22.6 +13.5 56 +26 +26 жарко 1014.2 919.2
23 14.06 Ю 7 н/о н/о +22.7 +13.1 55 +26 +26 жарко 1013.9 918.9
00 15.06 Ю 8
{14}
н/о н/о +22.8 +12.1 51 +25 +25 комфорт 1013.1 918.2 0.0
01 15.06 Ю 5
{14}
н/о н/о +22.4 +10.9 48 +24 +24 комфорт 1013.1 918.0
02 15.06 Ю 5 н/о н/о +22.5 +10.2 46 +24 +24 комфорт 1012.4 917.4
03 15.06 Ю 6
{14}
н/о н/о +22.2 +10.5 47 +24 +24 комфорт 1012.0 917.0
04 15.06 СВ 1 н/о н/о +21.0 +10.6 51 +24 +24 комфорт 1012.4 917.0
05 15.06 З 1 н/о н/о +20.5 +11.0 54 +23 +23 комфорт 1012.5 916.9
06 15.06 Ю 3
{14}
н/о н/о +23.8 +11.7 47 +25 +25 комфорт 1011.5 917.0 +19.0 +27.7 0.0
07 15.06 Ю 4 н/о н/о +25.4 +11.0 40 +26 +26 жарко 1011.3 917.3
08 15.06 Ю 5 н/о н/о +24.9 +10.0 39 +26 +26 жарко 1011.7 917.5
09 15.06 Ю 3 н/о н/о +25.2 +10.7 40 +26 +26 жарко 1011.6 917.5
10 15.06 Ю 4 н/о н/о +25.5 +11.0 40 +27 +27 жарко 1011.0 917.1
11 15.06 Ю 4 н/о н/о +25.1 +10.1 39 +26 +26 жарко 1011.6 917.5
12 15.06 Ю 2 н/о н/о +25.6 +12.0 43 +27 +27 жарко 1011.2 917.3
13 15.06 ЮВ 5 н/о н/о +26.4 +10.9 38 +27 +27 жарко 1010.5 916.9
14 15.06 ЮЗ 2 н/о н/о +27.6 +9.1 31 +28 +28 жарко 1010.0 916.7
15 15.06 Ю 4 н/о н/о +27.7 +11.2 36 +29 +29 жарко 1009.1 916.0
16 15.06 Ю 5 н/о н/о +27.7 +10.6 34 +28 +28 жарко 1008.4 915.3
17 15.06 Ю 3 н/о н/о +26.7 +11.0 37 +28 +28 жарко 1008.9 915.5
18 15.06 С 2 н/о н/о +24.1 +13.9 53 +26 +26 жарко 1010.1 915.9 +23.7 +28.5
19 15.06 С 2 н/о н/о +22.1 +13.7 59 +25 +25 комфорт 1011.7 916.8
20 15.06 СВ 1 н/о н/о +20.5 +13.3 63 +24 +24 комфорт 1013.2 917.6 0.0
21 15.06 З 1 н/о н/о +18.1 +12.9 72 +19 +19 1014.2 917.8 0.0
22 15.06 штиль 0 н/о н/о +16.3 +11.7 74 +16 +16 1014.7 917.6
23 15.06 штиль 0 н/о н/о +15.2 +11.6 79 +15 +15 1015.1 917.6
00 16.06 ЮВ 1 н/о н/о +14.9 +11.4 80 +15 +15 1014.9 917.3 0.0
01 16.06 С 1 н/о н/о +13.9 +11.3 84 +14 +14 1015.3 917.4
02 16.06 С 1 н/о н/о +12.7 +10.7 88 +13 +13 1016.0 917.6
03 16.06 штиль 0 н/о н/о +12.6 +10.7 88 +12 +12 1016.7 918.2
04 16.06 В 1 н/о н/о +12.6 +10.9 89 +13 +13 1017.4 918.8
05 16.06 СЗ 1 н/о н/о +16.1 +12.6 80 +17 +17 1016.3 919.0
06 16.06 С 2 н/о н/о +17.2 +12.7 75 +18 +18 1016.4 919.5 +11.9 +24.6 0.0
07 16.06 СЗ 3 н/о н/о +17.2 +12.2 72 +17 +17 1017.0 920.0
08 16.06 С 3 н/о н/о +16.7 +12.1 74 +16 +16 1018.0 920.7
09 16.06 СЗ 4 н/о н/о +16.4 +12.0 75 +16 +16 1018.6 921.2
10 16.06 СЗ 2 н/о н/о +16.9 +11.3 70 +17 +17 1018.8 921.5
11 16.06 З 4 н/о н/о +17.3 +11.6 69 +17 +17 1019.0 921.8
12 16.06 З 4 н/о н/о +17.3 +10.9 66 +17 +17 1019.2 922.0
13 16.06 СЗ 4 н/о н/о +17.4 +11.3 67 +17 +17 1018.7 921.6
14 16.06 СЗ 3 н/о н/о +17.8 +11.1 65 +18 +18 1018.6 921.6
15 16.06 З 2 н/о н/о +17.2 +11.2 68 +18 +18 1019.1 921.9
16 16.06 С 2 н/о н/о +17.9 +11.4 66 +18 +18 1018.3 921.4
17 16.06 З 3 н/о н/о +18.0 +11.5 66 +18 +18 1019.1 922.1 0.0
18 16.06 СЗ 3 н/о н/о +17.7 +11.3 66 +18 +18 1019.3 922.2 +15.9 +18.3 0.0
19 16.06 З 3 н/о н/о +16.6 +11.0 69 +16 +16 1019.9 922.4
20 16.06 СЗ 1 н/о н/о +16.4 +10.9 70 +17 +17 1020.5 922.9
21 16.06 С 1 н/о н/о +15.9 +11.3 74 +17 +17 1021.1 923.3
22 16.06 штиль 0 н/о н/о +15.8 +11.2 74 +16 +16 1021.4 923.5
23 16.06 штиль 0 н/о н/о +15.5 +11.3 76 +15 +15 1020.8 922.9
00 17.06 С 1 н/о н/о +15.4 +11.4 77 +16 +16 1020.7 922.7
01 17.06 С 1 н/о н/о +15.2 +11.4 78 +16 +16 1020.7 922.7
02 17.06 СЗ 1 н/о в посл. час осадки н/о +13.7 +12.4 92 +14 +14 1021.2 922.7 0.0
03 17.06 штиль 0 н/о {осадки} н/о +13.6 +12.6 94 +13 +13 1021.6 923.0 0.0
04 17.06 СВ 1 н/о н/о +13.2 +12.3 94 +13 +13 1021.7 923.0
05 17.06 С 1 н/о н/о +13.9 +12.8 93 +14 +14 1021.5 923.0
06 17.06 С 1 н/о {осадки} н/о +15.7 +12.5 81 +16 +16 1020.7 922.9 +13.0 +17.8 0.0
07 17.06 С 3 н/о н/о +16.4 +10.6 69 +16 +16 1020.3 922.7
08 17.06 СЗ 3 н/о н/о +17.3 +10.2 63 +17 +17 1020.0 922.7
09 17.06 С 3 н/о н/о +17.8 +10.9 64 +18 +18 1019.7 922.6 0.0
10 17.06 СВ 1 н/о н/о +18.9 +11.0 60 +21 +21 комфорт 1019.2 922.5
11 17.06 В 2 н/о н/о +19.4 +10.7 57 +21 +21 комфорт 1019.0 922.4
12 17.06 СВ 1 н/о н/о +20.4 +10.4 53 +23 +23 комфорт 1018.2 922.0 0.0
13 17.06 С 3 н/о н/о +20.9 +11.3 54 +23 +23 комфорт 1017.5 921.6
14 17.06 В 3 н/о н/о +20.6 +11.5 56 +23 +23 комфорт 1017.3 921.3
15 17.06 СВ 2 н/о н/о +20.8 +12.6 59 +24 +24 комфорт 1017.0 921.1
16 17.06 СВ 2 н/о н/о +20.7 +12.3 59 +24 +24 комфорт 1016.8 920.9
17 17.06 В 2 н/о н/о +20.0 +12.1 60 +22 +22 комфорт 1016.8 920.7
18 17.06 В 2 н/о н/о +19.0 +11.9 63 +20 +20 1016.9 920.5 +15.3 +22.0 0.0
19 17.06 В 1 н/о н/о +17.9 +12.0 68 +19 +19 1017.5 920.7 0.0
20 17.06 СВ 1 н/о н/о +17.0 +12.0 72 +18 +18 1018.4 921.2
21 17.06 ЮВ 1 н/о н/о +16.2 +12.0 76 +17 +17 1018.7 921.2 0.0
22 17.06 штиль 0 н/о н/о +14.7 +11.8 83 +14 +14 1019.1 921.1
23 17.06 Ю 1 н/о н/о +14.0 +11.6 85 +14 +14 1019.2 920.9
00 18.06 Ю 1 н/о н/о +13.1 +11.4 89 +13 +13 1019.4 920.8 0.0
01 18.06 ЮВ 1 н/о н/о +12.9 +11.3 90 +13 +13 1018.8 920.2
02 18.06 ЮВ 1 н/о н/о +12.1 +10.9 92 +12 +12 1018.6 919.8
03 18.06 ЮВ 1 н/о н/о +11.4 +10.6 95 +11 +11 1018.8 919.7
04 18.06 ЮВ 1 н/о н/о +11.4 +10.3 93 +11 +11 1019.0 919.9
05 18.06 ЮВ 2 н/о н/о +14.0 +11.7 86 +13 +13 1017.8 919.7
06 18.06 ЮВ 2 н/о н/о +15.6 +12.1 80 +16 +16 1017.3 919.8 +11.2 +19.2 0.0
07 18.06 Ю 1 н/о н/о +18.3 +13.1 72 +20 +20 1016.4 919.8
08 18.06 ЮВ 3 н/о н/о +21.3 +12.4 57 +24 +24 комфорт 1015.2 919.6
09 18.06 ЮВ 4 н/о н/о +22.4 +12.5 53 +25 +25 комфорт 1014.4 919.3
10 18.06 Ю 5 н/о н/о +22.5 +11.9 51 +25 +25 комфорт 1014.2 919.1
11 18.06 Ю 3 н/о н/о +23.5 +11.2 46 +25 +25 комфорт 1013.5 918.7
12 18.06 ЮЗ 3 н/о н/о +24.0 +11.2 45 +25 +25 комфорт 1012.7 918.2
13 18.06 ЮВ 4 н/о н/о +25.2 +11.9 43 +27 +27 жарко 1011.9 917.8
14 18.06 СВ 2 н/о н/о +24.5 +12.2 46 +26 +26 жарко 1011.9 917.6 0.0
15 18.06 Ю 4 н/о осадки н/о +18.2 +15.8 86 +18 +18 1014.2 917.9 0.1
16 18.06 З 1 н/о ливневой дождь н/о +15.5 +13.8 90 +16 +16 1015.5 918.2 0.0
17 18.06 ЮВ 3 н/о в посл. час осадки н/о +16.1 +13.7 86 +16 +16 1015.6 918.4 0.2
18 18.06 ЮВ 5 н/о в посл. час осадки {ливн. осадки} н/о +15.4 +13.7 90 +14 +14 1015.8 918.4 +15.2 +25.8 0.4
19 18.06 Ю 4 н/о н/о +15.2 +13.5 90 +14 +14 1015.9 918.4 0.0
20 18.06 Ю 3 н/о н/о +14.7 +13.4 92 +14 +14 1016.1 918.4 0.0
21 18.06 Ю 2 н/о н/о +14.0 +13.4 96 +13 +13 1016.3 918.4 0.0
22 18.06 ЮВ 3 н/о н/о +14.1 +13.2 94 +13 +13 1015.7 917.9
23 18.06 ЮВ 3 н/о н/о +13.6 +13.3 98 +12 +12 1015.9 917.9
00 19.06 Ю 3 н/о н/о +13.2 +13.1 99 +12 +12 1015.8 917.7 0.0
01 19.06 ЮВ 3 н/о н/о +12.9 +12.7 99 +11 +11 1015.5 917.3
02 19.06 Ю 3 н/о н/о +12.5 +12.4 99 +11 +11 1015.4 917.1
03 19.06 ЮВ 3 н/о н/о +12.1 +12.0 99 +10 +10 1015.4 916.9
04 19.06 ЮВ 4 н/о н/о +11.9 +11.8 99 +10 +10 1015.4 916.8
05 19.06 ЮВ 4 н/о н/о +11.8 +11.7 99 +9 +9 1015.5 916.9
06 19.06 ЮВ 3 н/о н/о +12.6 +12.4 99 +11 +11 1015.2 916.9 +11.8 +15.8 0.0
07 19.06 ЮВ 3 н/о н/о +16.0 +13.5 85 +16 +16 1013.7 916.7
08 19.06 ЮВ 3 н/о н/о +19.8 +14.0 69 +22 +22 комфорт 1012.3 916.6
09 19.06 штиль 0 н/о н/о +23.3 +12.9 52 +26 +26 жарко 1010.8 916.3
10 19.06 СЗ 2 н/о н/о +24.0 +9.6 40 +25 +25 комфорт 1010.2 915.8
11 19.06 ЮВ 2 н/о н/о +24.8 +9.4 38 +26 +26 жарко 1009.3 915.3 0.0
12 19.06 Ю 1 н/о н/о +26.0 +10.5 38 +27 +27 жарко 1008.1 914.6 0.0
13 19.06 С 2 н/о н/о +25.9 +11.6 41 +27 +27 жарко 1007.9 914.4
14 19.06 В 3 н/о осадки н/о +19.9 +15.9 78 +23 +23 комфорт 1009.8 914.5 0.7

 

Местоположение метеостанции Санкт-Себастьян (Австрия): широта 47.80 долгота 15.30 высота над уровнем моря 872 м.

В архиве по умолчанию представлена погода в Санкт-Себастьяне за последнюю неделю. Архивные данные за месяц целиком и за предыдущие месяцы, начиная с января 2011 года, Вы можете получить, выбрав интересующий диапазон дат из раскрывающегося списка и нажав кнопку "Ввод!".


*Определитесь, кто Вы:
робот инопланетянин человек

Внимание! Время в таблицах - всемирное. Для получения местного времени необходимо прибавить поправку, которая равна 1 ч.

Смотрите также архив погоды в соседних городах и на ближайших метеорологических станциях:

Погода в Лунце (Австрия) (18 км)
Погода в Афленц-Курорте (Австрия) (28 км)
Погода в Лилиенфельде (Австрия) (33 км)
Погода в Капфенберг аэропорту (Австрия) (37 км)
Погода в Раксе (Австрия) (37 км)
Погода в Капфенберге (Австрия) (39 км)
Погода в Вайдхофен-ан-дер-Ибсе (Австрия) (40 км)
Погода в Пребихле (Австрия) (41 км)
Погода в Райхенау-ан-дер-Раксе (Австрия) (41 км)
Погода в Брукк-ан-дер-Муре (Австрия) (42 км)

Пояснения к столбцам:

Ветер - указаны скорость ветра в м/с - средняя за 10 мин, порывы в срок и между сроками (в фигурных скобках) и направление, откуда дует ветер: С - северный, СВ - северо-восточный, В - восточный, ЮВ - юго-восточный, Ю - южный, ЮЗ - юго-западный, З - западный, СЗ - северо-западный.
Видимость - горизонтальная дальность видимости в метрах или километрах. При видимости от 1 до 10 км при отсутствии осадков обычно наблюдается дымка, при ухудшении видимости до 1 км и менее - туман. В сухую погоду видимость может ухудшаться дымом, пылью или мглою.
Явления - указаны атмосферные явления, наблюдавшиеся в срок или в последний час перед сроком; фигурными скобками обозначены явления, наблюдавшиеся между сроками (за 1-3 часа до срока); квадратными скобками обозначены град или гололедные отложения с указанием их диаметра в мм.
Облачность - указаны через наклонную черту общая и нижняя облачность в баллах и высота нижней границы облаков в метрах; квадратными скобками обозначены формы облаков: Ci - перистые, Cs - перисто-слоистые, Cc - перисто-кучевые, Ac - высококучевые, As - высокослоистые, Sc - слоисто-кучевые, Ns - слоисто-дождевые, Cu - кучевые, Cb - кучево-дождевые. Подробнее классификацию облаков см. в Атласе облаков (PDF).
T - Температура воздуха - температура, измеренная на высоте 2 м над землей.
Td - Температура точки росы - температура, при понижении до которой содержащийся в воздухе водяной пар достигнет насыщения.
f - Относительная влажность воздуха - влажноcть воздуха, измеренная на высоте 2 м над землей.
Te - Эффективная температура - температура, которую ощущает одетый по сезону человек в тени. Характеристика душности погоды. При расчете учитывается влияние влажности воздуха и скорости ветра на теплоощущения человека.
Tes - Эффективная температура на солнце - температура, которую ощущает человек, с поправкой на солнечный нагрев. Характеристика знойности погоды. Зависит от высоты солнца над горизонтом, облачности и скорости ветра. Ночью, в пасмурную погоду, а также при ветре 12 м/с и более поправка равна нулю.
P - Атмосферное давление - приведенное к уровню моря атмосферное давление.
Po - Атмосферное давление - измеренное на уровне метеостанции атмосферное давление.
Tmin - Минимальная температура - минимум температуры воздуха на высоте 2 м над землей.
Tmax - Максимальная температура - максимум температуры воздуха на высоте 2 м над землей.
R - Количество осадков - Количество выпавших осадков за период времени, мм. При наведении курсора мыши на число - период времени, за который выпало указанное количество осадков.
R24 - Количество осадков - Количество выпавших осадков за 24 часа, мм.
S - Снежный покров - Высота снежного покрова, см. При наведении курсора мыши на число - состояние снежного покрова и степень покрытия местности в баллах.